Probability
0 0 0 0 0 0 0 0 0 0 0 0 0 0 0 0 0 0 0 0 0 6 6 6 6 3 3 3 6 6 3 3 3 3 3 3 3 3 0 0 0 0 0
0 0 0 0 0 0 0 0 0 0 0 0 0 0 0 0 0 0 0 0 0 0 6 6 6 3 6 3 3 6 3 3 3 3 3 0 0 0 0 0 0 0 0
0 0 0 0 0 0 0 0 0 0 0 0 0 0 0 0 0 0 0 0 0 0 0 3 10 3 6 3 3 3 3 3 0 3 3 3 3 0 0 0 0 0 0
0 0 0 0 0 0 0 0 0 0 0 0 0 0 0 0 0 0 0 0 0 0 0 0 0 3 6 6 6 3 3 0 0 0 3 3 3 3 0 0 0 0 0
0 0 0 0 0 0 0 0 0 0 0 0 0 0 0 0 0 0 0 0 0 0 0 0 0 0 3 6 3 3 3 0 0 0 3 3 3 3 3 0 0 0 0
0 0 0 0 0 0 0 0 0 0 0 0 0 0 0 0 0 0 0 0 0 0 0 0 0 0 0 0 3 3 3 0 0 0 0 0 0 0 0 0 0 0 0
0 0 0 0 0 0 0 0 0 0 0 0 0 0 0 0 0 0 0 0 0 0 0 0 0 0 0 0 0 0 3 0 0 0 0 0 0 0 0 0 0 0 0
0 0 0 0 0 0 0 0 0 0 0 0 0 0 0 0 0 0 0 0 0 0 0 0 0 0 0 0 0 0 0 0 0 0 0 0 0 0 0 0 0 0 0
0 0 0 0 0 0 0 0 0 0 0 0 0 0 0 0 0 0 0 0 0 0 0 0 0 0 0 0 0 0 0 0 0 0 0 0 0 0 0 0 0 0 0
0 0 0 0 0 0 0 0 0 0 0 0 0 0 0 0 0 0 0 0 0 0 0 0 0 0 0 0 0 0 0 0 0 0 0 0 0 0 0 0 0 0 0
0 0 0 0 0 0 0 0 0 0 0 0 0 0 0 0 0 0 0 0 0 0 0 0 0 0 0 0 0 0 0 0 0 0 0 0 0 0 0 0 0 0 0
0 0 0 0 0 0 0 0 0 0 0 0 0 0 0 0 0 0 0 0 0 0 0 0 0 0 0 0 0 0 0 0 0 0 0 0 0 0 0 0 0 0 0
0 0 0 0 0 0 0 0 0 0 0 0 0 0 0 0 0 0 0 0 0 0 0 0 0 0 0 0 0 0 0 0 0 0 0 0 0 0 0 0 0 0 0
0 0 0 0 0 0 0 0 0 0 0 0 0 0 0 0 0 0 0 0 0 0 0 0 0 0 0 0 0 0 0 0 0 0 0 0 0 0 0 0 0 0 0
0 0 0 0 0 0 0 0 0 0 0 0 0 0 0 0 0 0 0 0 0 0 0 0 0 0 0 0 0 0 0 0 0 0 0 0 0 0 0 0 0 0 0
0 0 0 0 0 0 0 0 0 0 0 0 0 0 0 0 0 0 0 0 0 0 0 0 0 0 0 0 0 0 0 0 0 0 0 0 0 0 0 0 0 0 0
0 0 0 0 0 0 0 0 0 0 0 0 0 0 0 0 0 0 0 0 0 0 0 0 0 0 0 0 0 0 0 0 0 0 0 0 0 0 0 0 0 0 0
0 0 0 0 0 0 0 0 0 0 0 0 0 0 0 0 0 0 0 0 0 0 0 0 0 0 0 0 0 0 0 0 0 0 0 0 0 0 0 0 0 0 0
0 0 0 0 0 0 0 0 0 0 0 0 0 0 0 0 0 0 0 0 0 0 0 0 0 0 0 0 0 0 0 0 0 0 0 0 0 0 0 0 0 0 0
0 0 0 0 0 0 0 0 0 0 0 0 0 0 0 0 0 0 0 0 0 0 0 0 0 0 0 0 0 0 0 0 0 0 0 0 0 0 0 0 0 0 0
0 0 0 0 0 0 0 0 0 0 0 0 0 0 0 0 0 0 0 0 0 0 0 0 0 0 0 0 0 0 0 0 0 0 0 0 0 0 0 0 0 0 0
0 0 0 0 0 0 0 0 0 0 0 0 0 0 0 0 0 0 0 0 0 0 0 0 0 0 0 0 0 0 0 0 0 0 0 0 0 0 0 0 0 0 0
0 0 0 0 0 0 0 0 0 0 0 0 0 0 0 0 0 0 0 0 0 0 0 0 0 0 0 0 0 0 0 0 0 0 0 0 0 0 0 0 0 0 0
0 0 0 0 0 0 0 0 0 0 0 0 0 0 0 0 0 0 0 0 0 0 0 0 0 0 0 0 0 0 0 0 0 0 0 0 0 0 0 0 0 0 0
0 0 0 0 0 0 0 0 0 0 0 0 0 0 0 0 0 0 0 0 0 0 0 0 0 0 0 0 0 0 0 0 0 0 0 0 0 0 0 0 0 0 0
0 0 0 0 0 0 0 0 0 0 0 0 0 0 0 0 0 0 0 0 0 0 0 0 0 0 0 0 0 0 0 0 0 0 0 0 0 0 0 0 0 0 0
Height
5774 5775 5776 5776 5777 5777 5778 5779 5780 5781 5782 5783 5784 5785 5786 5787 5788 5789 5790 5791 5791 5792 5793 5794 5795 5795 5796 5797 5798 5798 5799 5800 5801 5802 5803 5803 5804 5805 5806 5806 5807 5808 5808
5766 5767 5768 5768 5769 5769 5770 5770 5771 5773 5774 5775 5776 5777 5778 5779 5780 5781 5782 5783 5784 5784 5785 5786 5787 5788 5789 5789 5790 5791 5792 5793 5794 5795 5796 5797 5798 5798 5799 5800 5801 5801 5802
5758 5758 5759 5759 5760 5760 5761 5762 5762 5764 5765 5766 5767 5769 5770 5771 5772 5772 5773 5774 5775 5776 5777 5778 5779 5780 5781 5781 5782 5783 5784 5785 5786 5787 5788 5789 5790 5791 5792 5793 5794 5794 5795
5749 5749 5750 5750 5750 5751 5752 5752 5753 5754 5756 5757 5758 5759 5760 5761 5762 5763 5764 5765 5766 5767 5768 5769 5770 5771 5772 5772 5773 5775 5776 5777 5778 5779 5779 5780 5782 5783 5784 5785 5786 5787 5787
5739 5740 5740 5741 5741 5741 5742 5743 5743 5744 5745 5747 5748 5749 5750 5751 5752 5753 5754 5755 5756 5757 5758 5759 5760 5761 5762 5763 5764 5765 5766 5767 5768 5769 5770 5771 5772 5774 5775 5776 5777 5778 5779
5729 5730 5730 5730 5730 5731 5731 5732 5733 5734 5735 5736 5737 5738 5739 5740 5741 5742 5743 5744 5745 5746 5747 5748 5749 5750 5751 5752 5753 5754 5755 5757 5758 5759 5760 5761 5763 5764 5765 5766 5768 5769 5770
5719 5719 5719 5719 5719 5720 5720 5720 5721 5722 5723 5724 5725 5727 5728 5728 5730 5731 5731 5732 5733 5734 5735 5736 5737 5739 5740 5740 5742 5743 5744 5745 5746 5748 5750 5751 5752 5753 5755 5756 5757 5759 5760
5708 5707 5707 5708 5708 5708 5708 5709 5709 5710 5711 5711 5713 5714 5715 5717 5717 5718 5719 5720 5721 5721 5722 5724 5725 5726 5727 5728 5729 5731 5732 5733 5734 5736 5738 5739 5741 5742 5744 5745 5747 5748 5749
5696 5696 5696 5696 5696 5696 5696 5696 5697 5697 5698 5698 5699 5700 5701 5702 5704 5706 5706 5706 5707 5708 5709 5710 5711 5712 5713 5715 5716 5718 5719 5720 5721 5723 5724 5726 5728 5730 5731 5733 5735 5736 5738
5685 5684 5684 5684 5684 5684 5684 5684 5684 5684 5684 5684 5685 5685 5686 5687 5688 5690 5692 5692 5693 5693 5694 5695 5696 5698 5699 5700 5702 5703 5705 5706 5708 5709 5711 5712 5714 5716 5717 5719 5721 5723 5725
5673 5672 5672 5672 5671 5671 5670 5670 5670 5669 5669 5669 5669 5670 5671 5671 5671 5673 5676 5677 5678 5678 5679 5680 5681 5682 5684 5685 5686 5688 5689 5691 5693 5694 5696 5698 5699 5701 5703 5705 5707 5708 5711
5661 5660 5659 5659 5658 5657 5656 5656 5655 5655 5654 5654 5654 5654 5654 5655 5656 5656 5658 5660 5662 5663 5663 5664 5665 5666 5667 5669 5670 5671 5673 5674 5676 5678 5680 5681 5683 5685 5687 5689 5691 5693 5695
5648 5647 5646 5645 5644 5643 5642 5641 5640 5640 5639 5638 5638 5638 5638 5638 5638 5639 5640 5642 5644 5646 5646 5647 5647 5648 5650 5651 5652 5654 5655 5657 5658 5660 5662 5664 5666 5668 5670 5672 5674 5676 5679
5635 5634 5632 5631 5630 5629 5627 5626 5625 5624 5623 5622 5622 5622 5621 5621 5620 5621 5622 5623 5625 5628 5629 5630 5630 5630 5631 5633 5634 5635 5637 5638 5640 5642 5644 5646 5648 5650 5652 5654 5656 5659 5661
5621 5620 5618 5617 5616 5614 5613 5611 5610 5609 5607 5606 5605 5605 5604 5604 5603 5603 5603 5604 5605 5608 5611 5613 5612 5612 5613 5614 5615 5616 5618 5620 5621 5623 5625 5627 5629 5631 5633 5635 5637 5640 5642
5607 5606 5604 5603 5601 5599 5597 5596 5595 5593 5591 5590 5589 5588 5587 5586 5585 5585 5585 5585 5585 5587 5590 5594 5594 5594 5594 5595 5596 5597 5599 5601 5602 5604 5605 5607 5609 5611 5613 5615 5617 5620 5623
5593 5592 5590 5588 5586 5584 5582 5580 5579 5577 5575 5573 5572 5570 5569 5568 5567 5567 5567 5567 5567 5567 5569 5573 5573 5574 5574 5575 5577 5578 5579 5581 5583 5584 5586 5587 5589 5591 5593 5595 5597 5600 5603
5580 5577 5575 5573 5571 5569 5567 5565 5563 5561 5558 5557 5554 5553 5551 5550 5550 5549 5548 5548 5548 5548 5550 5553 5554 5554 5555 5556 5557 5558 5560 5562 5563 5565 5566 5567 5569 5570 5572 5574 5576 5579 5582
5566 5563 5560 5558 5555 5553 5551 5548 5546 5544 5542 5539 5537 5536 5534 5533 5532 5531 5530 5530 5530 5530 5531 5533 5535 5535 5536 5536 5537 5539 5540 5542 5543 5545 5546 5548 5549 5550 5552 5554 5555 5558 5561
5552 5549 5546 5542 5540 5537 5535 5532 5529 5527 5525 5523 5520 5518 5517 5515 5514 5513 5513 5512 5512 5512 5512 5513 5516 5517 5518 5518 5518 5520 5522 5523 5525 5525 5527 5528 5529 5530 5532 5534 5537 5538 5540
5538 5534 5531 5528 5524 5521 5519 5516 5513 5511 5508 5506 5504 5501 5500 5498 5496 5496 5495 5494 5494 5494 5495 5496 5498 5499 5500 5500 5501 5502 5503 5505 5507 5506 5508 5510 5511 5513 5513 5514 5516 5518 5520
5523 5520 5517 5513 5509 5506 5503 5500 5497 5494 5492 5489 5487 5485 5483 5481 5480 5479 5478 5477 5476 5477 5478 5478 5480 5482 5483 5483 5483 5484 5485 5487 5490 5491 5489 5492 5492 5493 5495 5496 5498 5499 5502
5509 5506 5502 5498 5495 5491 5487 5484 5480 5478 5476 5473 5471 5469 5467 5465 5464 5463 5462 5461 5460 5460 5460 5462 5463 5464 5466 5467 5467 5468 5468 5468 5471 5472 5471 5474 5475 5476 5477 5479 5480 5482 5484
5495 5491 5488 5484 5480 5476 5472 5468 5465 5462 5460 5458 5455 5453 5452 5450 5449 5447 5446 5446 5445 5445 5445 5445 5447 5448 5448 5448 5449 5450 5450 5452 5454 5454 5453 5456 5459 5460 5461 5463 5464 5465 5467
5481 5477 5473 5469 5465 5461 5457 5454 5450 5448 5445 5443 5440 5438 5436 5435 5434 5432 5431 5431 5430 5430 5429 5429 5430 5430 5431 5431 5431 5432 5433 5434 5437 5439 5437 5439 5442 5444 5446 5448 5449 5449 5451
5467 5463 5459 5455 5451 5447 5443 5439 5435 5433 5431 5429 5426 5424 5422 5420 5418 5415 5414 5414 5414 5414 5414 5414 5414 5414 5414 5415 5415 5416 5417 5418 5420 5423 5423 5423 5425 5427 5431 5434 5434 5435 5436
Wind_Speed
31 31 31 31 32 32 33 33 33 33 33 33 33 33 33 33 32 32 32 32 32 32 32 32 31 31 31 31 30 30 30 29 29 29 28 28 28 27 27 27 27 27 27
33 32 33 33 34 34 34 35 35 35 35 35 35 35 35 35 35 35 34 34 33 33 34 34 34 33 33 33 33 33 33 33 32 32 32 31 30 30 30 29 29 29 29
35 35 35 35 35 35 35 36 36 36 37 37 37 37 37 37 38 37 37 36 36 36 36 36 36 36 36 35 35 35 35 35 35 35 35 34 34 33 33 33 32 31 31
38 37 37 37 37 37 38 38 38 38 39 39 39 39 39 39 40 39 39 39 39 39 39 39 39 39 39 39 39 38 37 37 37 37 37 37 37 36 36 36 35 34 34
39 39 39 39 39 39 40 40 40 40 40 40 40 41 41 41 41 41 41 41 41 41 41 41 41 42 42 42 42 41 41 40 40 40 40 40 39 39 38 38 37 36 36
41 41 40 40 41 41 42 42 42 42 43 42 42 43 43 43 44 44 43 43 44 44 43 43 43 43 44 44 44 44 44 43 43 43 43 43 42 41 41 40 39 39 38
43 43 43 43 44 44 44 44 44 45 45 45 45 45 45 45 46 46 46 46 47 46 46 46 46 46 46 46 46 46 45 45 45 45 45 45 45 44 43 43 42 42 41
43 43 45 44 44 45 46 46 47 47 48 48 48 47 47 48 49 49 49 49 49 49 49 48 48 48 48 48 48 48 47 47 47 48 48 47 47 46 46 45 44 44 43
43 43 44 45 45 46 46 47 48 49 50 50 50 50 51 51 52 51 52 51 51 50 50 51 50 50 50 50 49 49 50 50 49 49 50 50 50 49 49 48 48 47 47
44 44 45 45 45 46 48 49 50 50 51 52 52 52 52 53 54 54 54 53 53 53 53 53 53 53 52 52 52 52 51 51 51 51 51 52 52 52 52 52 51 51 50
45 45 46 47 47 48 49 51 51 51 52 53 53 53 54 54 54 55 55 55 55 55 54 54 55 55 55 55 55 55 55 55 55 54 54 55 55 55 55 55 54 54 53
46 47 47 48 49 50 51 51 51 52 52 53 54 54 55 56 57 56 56 56 56 56 57 57 57 57 57 58 58 58 58 58 58 57 57 57 57 57 57 57 57 57 56
48 48 49 50 50 51 52 52 52 53 54 55 55 56 56 57 59 59 58 58 58 58 58 58 58 59 59 59 60 60 60 59 59 59 59 60 60 59 59 59 59 59 59
49 50 51 51 51 52 52 52 53 53 54 55 55 56 56 57 59 60 60 60 61 60 60 60 60 61 61 61 61 62 62 61 62 62 62 62 62 62 61 61 62 62 61
48 50 51 52 52 53 52 53 53 53 54 55 56 57 58 59 59 60 60 61 62 63 62 61 61 61 62 62 63 63 63 62 62 62 62 62 63 63 63 63 63 63 63
48 49 50 51 52 53 53 53 54 54 54 56 57 58 58 59 59 60 61 61 62 64 63 62 62 63 63 63 63 63 63 64 64 63 63 63 64 64 64 65 65 65 65
48 49 50 51 51 52 53 54 55 56 57 57 57 58 59 59 59 60 61 62 62 63 63 62 62 63 64 63 63 63 63 63 64 64 64 64 64 65 65 65 65 66 65
48 49 50 51 52 53 53 54 55 56 57 57 57 57 58 58 59 59 60 61 62 62 63 62 62 63 63 64 63 63 63 63 63 63 63 64 64 65 65 65 66 66 66
49 50 51 52 53 54 54 55 55 56 56 56 57 57 58 58 58 59 59 60 60 61 62 62 62 61 62 62 63 63 64 64 64 64 64 64 64 64 65 65 65 65 66
49 50 51 52 53 54 55 55 55 56 56 56 56 57 57 58 58 58 58 59 59 60 60 60 60 59 59 60 61 62 62 63 63 63 63 63 63 63 63 64 64 65 66
49 49 50 51 52 53 54 55 55 56 56 56 56 55 56 56 57 58 58 58 58 59 59 59 58 57 57 58 58 59 60 60 60 61 61 62 62 62 62 62 62 63 64
49 50 50 50 51 52 53 53 54 55 54 54 54 54 54 54 56 57 57 57 57 57 57 57 57 56 56 56 57 58 58 59 58 59 60 59 60 60 60 60 60 61 61
49 49 49 50 51 52 52 53 53 53 52 52 52 52 53 53 53 54 54 55 55 56 56 56 56 55 55 56 57 57 57 57 57 58 59 58 58 57 57 57 58 58 58
49 49 50 50 51 51 51 51 51 51 51 51 51 51 52 52 53 53 52 52 53 54 55 55 55 55 55 55 56 56 56 56 56 56 57 56 55 55 54 54 54 53 54
49 49 49 50 50 50 51 51 51 51 51 50 50 50 50 50 51 52 52 52 52 53 53 53 53 54 53 54 54 55 55 55 54 53 54 55 54 54 53 52 51 51 51
48 48 48 49 49 49 50 51 51 51 50 49 49 49 49 49 49 49 50 51 51 51 52 52 52 52 51 51 52 53 53 53 52 50 51 52 51 51 50 49 49 49 49
Wind_Direction
259 259 261 261 261 262 262 261 259 258 257 257 257 257 256 256 256 256 256 257 257 256 256 256 256 256 256 255 255 255 255 255 254 254 254 255 255 255 256 258 259 260 260
259 261 262 262 262 262 261 261 260 258 257 257 257 257 258 258 257 257 257 258 258 258 257 256 256 256 255 255 255 255 255 255 255 255 255 254 254 255 257 257 258 259 260
260 261 263 263 264 263 263 262 260 258 257 258 258 257 258 259 258 259 258 259 259 259 258 257 257 256 256 256 257 256 256 256 255 255 255 255 255 256 257 257 258 259 261
261 262 264 264 264 264 263 262 261 259 258 258 258 258 259 259 259 259 259 259 259 259 259 258 258 257 257 257 258 258 257 257 255 255 255 256 256 256 257 257 258 259 260
262 263 264 264 265 265 263 262 261 260 259 259 258 258 260 260 260 260 260 259 259 259 259 259 258 258 259 259 259 258 258 257 256 256 256 256 256 256 257 257 258 259 260
262 263 264 264 265 265 264 263 263 261 260 260 260 259 259 260 260 261 260 260 260 260 260 260 259 259 259 259 260 259 259 258 256 256 257 256 256 257 257 258 258 259 260
263 263 264 265 265 266 265 264 264 262 262 261 262 261 260 260 261 261 261 260 260 260 260 261 260 259 259 258 259 259 259 258 257 256 257 258 258 257 258 258 258 259 259
266 266 266 266 267 266 265 265 264 263 263 262 262 263 262 261 261 261 261 261 261 261 261 261 260 259 258 257 258 258 258 258 258 258 258 258 258 258 258 258 258 258 258
268 268 268 268 268 268 267 265 265 264 263 263 263 263 263 262 261 262 262 262 261 261 261 260 259 258 258 258 258 257 257 258 258 258 258 258 258 258 258 258 258 258 258
269 269 268 268 269 269 268 266 266 265 264 264 263 263 264 263 262 261 261 261 261 261 261 261 261 260 259 259 260 260 259 259 258 258 259 259 259 259 259 259 259 259 258
269 269 269 269 269 270 269 268 268 267 266 264 264 263 263 263 263 263 262 261 261 261 261 262 262 262 261 261 261 261 260 260 259 259 259 259 259 260 260 259 259 258 258
270 270 270 270 270 271 270 270 269 268 267 266 265 264 264 264 264 264 263 262 261 261 261 262 262 262 262 261 261 261 261 261 260 260 259 259 259 260 259 259 259 258 258
270 270 271 271 271 272 272 271 270 269 268 267 266 266 266 266 265 265 264 263 262 261 261 262 262 262 262 262 261 261 261 261 261 260 260 260 260 260 260 260 260 259 259
270 271 271 271 272 272 272 271 271 270 269 268 267 267 267 266 266 265 264 263 262 261 261 261 262 262 262 262 262 261 261 261 261 260 260 260 260 260 260 260 260 259 259
272 272 272 272 272 273 273 272 271 270 270 269 268 268 268 267 267 267 265 265 264 263 262 261 262 262 262 261 261 261 261 261 261 261 261 261 260 260 260 260 259 259 259
273 273 273 273 274 273 273 272 272 272 271 270 270 269 269 268 267 267 266 266 265 265 264 262 262 262 261 261 261 261 261 261 261 261 261 261 261 261 261 260 259 258 258
275 275 274 273 273 273 274 274 273 273 272 271 270 269 269 268 268 267 267 267 266 265 265 264 263 263 262 262 262 262 261 262 262 262 261 262 262 262 262 260 259 258 258
278 277 276 274 274 274 275 275 274 274 272 271 271 270 270 270 270 269 268 267 267 266 265 264 264 263 263 263 263 262 262 262 262 262 262 263 263 263 263 262 261 259 258
280 279 278 276 275 275 275 276 275 274 273 273 272 272 271 271 270 270 269 268 268 267 266 265 264 264 263 263 263 262 262 262 262 262 262 263 263 263 263 262 262 260 258
281 280 279 278 277 276 276 276 277 276 275 274 273 273 272 272 271 270 270 269 268 267 266 266 265 264 263 263 263 263 263 262 262 262 263 263 263 263 263 262 262 260 258
282 281 281 280 279 278 278 278 278 277 276 275 274 273 273 273 272 271 270 269 267 267 266 265 264 263 263 263 264 264 264 263 262 262 263 263 263 263 263 262 261 260 258
282 282 282 282 281 279 279 279 278 278 276 275 274 273 273 273 273 271 271 270 269 267 266 265 263 263 263 263 264 264 264 263 262 262 263 262 262 262 262 261 260 259 259
282 283 283 283 282 281 280 280 279 278 277 276 275 273 273 273 273 273 271 270 269 268 266 265 265 264 264 264 264 264 264 264 263 262 263 262 261 261 261 260 260 260 260
284 284 284 284 284 283 281 281 280 279 278 277 275 274 273 273 272 272 271 270 269 268 266 266 266 265 264 265 264 264 264 264 263 262 262 262 260 259 259 260 260 260 260
285 285 285 285 285 283 282 281 280 280 279 278 276 275 274 273 272 272 271 271 269 268 267 267 266 265 264 264 264 264 264 263 262 261 261 262 260 258 258 259 259 259 259
286 286 287 286 285 284 283 282 281 281 280 279 278 277 276 274 273 273 273 272 270 269 268 267 267 265 264 263 263 263 263 263 262 260 260 261 260 258 256 256 257 258 258